發表時間 文章標題 人氣 留言
2017-07-25 BENRO 百諾 REEBOK 100N 銳步系列 雙肩攝影後背包 (勝興公司貨) 綠色 REEBOK 100N【超讚】 (0) (0)
2017-07-25 BOK 造型景觀防水揚聲器 HR-508【好划算】 (0) (0)
2017-07-25 iki2妙麗女孩-真羊皮mix幾何蕾絲透膚娃娃鞋-襯膚白【好用】 (0) (0)
2017-07-24 IFFI 商務系列-二折長夾【下殺】 (0) (0)
2017-07-24 IFFI-手提包-毛毛兔 黑【先睹為快】 (0) (0)
2017-07-24 H-CT-HORSE素面極簡咖啡色真皮短夾(SH023E-B02-Z)【好用】 (0) (0)
2017-07-13 DF Queenin - 塗鴉風超大容量掛勾防水洗漱包-化妝包- 收納包-共4色【先睹為快】 (0) (0)
2017-07-13 Diana Janes 頭層牛皮兩用女包-神秘紫【搶購】 (0) (0)
2017-07-13 deborah lippmann奢華精品指甲油_空中的亮彩#20076【下殺】 (0) (0)
2017-07-12 DF Queenin日韓 - 時尚編織都會女子必敗仿皮後背包【先睹為快】 (0) (0)
2017-07-12 Diana Janes 經典LOGO單拉女夾-藍【好用】 (0) (0)
2017-07-12 AEROSOLES 名媛風尚民俗圖騰黑框壓邊樂福鞋~民俗刺繡【先睹為快】 (0) (0)
2017-07-11 Bio-essence碧歐斯 神奇生物噴霧300ml _3入【搶購】 (0) (0)
2017-07-11 BIOTHERM碧兒泉 肌底保濕晶萃凝凍50ml+60ml澎派容量組【先睹為快】 (0) (0)
2017-07-11 Ann'S細緻簍空幾何素色尖頭鞋-米白【先睹為快】 (0) (0)
2017-07-10 【SM】星鑽真皮系列-鑽面亮蔥楔型莫卡辛休閒鞋-銀色【搶購】 (0) (0)
2017-07-10 【H-CT】直式簡約真皮斜背腰包-小(B002-Z)【搶購】 (0) (0)
2017-07-10 1-2princess升級版復古皮革mini三用包-卡其色[A2688] (快)【先睹為快】 (0) (0)
2017-07-07 【燦坤快3】eminent維納斯細框PC行李箱20吋亮鋁 9R5【先睹為快】 (0) (0)
2017-07-07 【本週熱銷】快譯通Abee V56 行車記錄器 V56【下殺】 (0) (0)
2017-07-07 【燦坤快3】Casio NP-70副廠鋰電池 NP-70【先睹為快】 (0) (0)
2017-06-14 HP x778w 32GB 薄荷雪糕可愛造型隨身碟 USB3.0 [C01377HP].【部落客票選】 (0) (0)
2017-06-14 【本週熱銷】富士 X-T20可交換式鏡頭數位相機KIT-銀 X-T20銀色+18-55鏡頭【先睹為快】 (0) (0)
2017-06-14 【本週熱銷】【3入組】【U1】Apacer micro C10 64G記憶卡 小卡U1C10 R85_64G【下殺】 (0) (0)
2017-06-08 【人氣商品】羅技M171無線滑鼠-黑 910-004660【下殺】 (0) (0)
2017-06-08 【本週熱銷】TAMRON 15-30mm F2.8 Di VC USD A012E 單眼相機鏡頭 (公司貨)FOR CANON【先睹為快】 (0) (0)
2017-06-08 【人氣商品】【炒飯班】人氣即時炒飯系列 6盒起 - 160882【下殺】 (0) (0)
2017-06-07 【鐵三角】平衡電樞型耳塞式耳機ATH-CKB70-BK-黑色[ATH-CKB70-BK].【好康推薦】 (0) (0)
2017-06-07 【人氣商品】琺若琳美學館 - 155057【搶購】 (2) (0)
2017-06-07 【人氣商品】昱家-SensingTEK-PM2.5溫溼度感測器 P2Z2320【搶購】 (0) (0)
2017-06-06 【人氣商品】HP 60號XL黑色墨水匣 CC641WA【下殺】 (0) (0)
2017-06-06 【人氣商品】MITSUBISHI一對一變頻冷暖空調 MSZ-MUZ-GE25NA【下殺】 (0) (0)
2017-06-06 【GOMAGI】韓國【Crown】奶油鬆餅 5盒起 - 160024【好用】 (0) (0)
2017-06-05 【TECO東元 】直立式四層紫外線烘碗機YE2501CB[YE2501CB].【好康推薦】 (4) (0)
2017-06-05 【燦坤快3】WONDER 4吋USB金屬復古桌扇 WD-8513FU【好用】 (0) (0)
2017-06-05 L 型置物鉤小【分享文】 (0) (0)
2017-06-04 【dyson】SV10 V8 fluffy 手持無線吸塵器(香檳金)[SV10金].【限時下殺】 (0) (0)
2017-06-04 【IOIO】Lightning編織傳輸充電線GP120-銀色[GP120-銀].【熱門搶購】 (0) (0)
2017-06-04 【台灣三洋 SANLUX】《變頻》《冷暖》SAE-V50HF-SAC-V50HF【居家幫手】 (1) (0)
2017-06-03 【好物推薦】KWORLD S29入耳式電競音樂耳麥 KW-S29【好用】 (3) (0)
2017-06-03 送隔音罩【HamiltonBeac】專業營養調理機(58911TW)[58911TW].【熱門搶購】 (0) (0)
2017-06-03 【好物推薦】KINYO 藍光有線滑鼠 LKM-788【搶購】 (0) (0)
2017-06-02 【好物推薦】【8000mAh】miniQ 超薄觸控 行動電源-白 MD-BP-011-W【先睹為快】 (0) (0)
2017-06-02 【本週熱銷】微軟Surface Pro 4實體鍵盤(青藍) QC7-00080【先睹為快】 (0) (0)
2017-06-02 PROTON普騰 不鏽鋼蒸氣電熨斗 PEI-S01[PEI-S01].【部落客票選】 (0) (0)
2017-06-01 YAMASAK 山崎優賞14吋桌扇 SK-14C~台灣製造【情報】 (0) (0)
2017-06-01 【GOMAGI】泰鑫殿美容舒活會館(港墘會館) - 152681【好用】 (0) (0)
2017-06-01 【GOMAGI】【鹿港 里昂】招牌鹹蛋糕三明治 8入起 - 161470【先睹為快】 (0) (0)
2017-05-30 【人氣商品】國際感熱式傳真機(有裁刀) KX-FT516TW【先睹為快】 (0) (0)
2017-05-30 【諾帝亞】蒸汽拖把ZOD-MS0506[ZOD-MS0506].【部落客票選】 (0) (0)
找更多相關文章與討論